www.pogodaiklimat.ru
ПОГОДА в Колледж Парк
Время
и дата
04:05 15.07
04:25 15.07
04:45 15.07
05:05 15.07
05:25 15.07
05:45 15.07
06:05 15.07
06:25 15.07
06:45 15.07
07:05 15.07
07:25 15.07
07:45 15.07
08:05 15.07
08:30 15.07
08:45 15.07
09:05 15.07
09:25 15.07
09:45 15.07
10:05 15.07
10:25 15.07
10:50 15.07
11:10 15.07
11:30 15.07
11:50 15.07
12:10 15.07
12:45 15.07
13:05 15.07
13:25 15.07
13:45 15.07
14:05 15.07
14:25 15.07
14:45 15.07
15:05 15.07
15:25 15.07
15:45 15.07
16:05 15.07
16:25 15.07
16:45 15.07
17:05 15.07
17:25 15.07
17:45 15.07
18:05 15.07
18:25 15.07
18:45 15.07
19:05 15.07
19:25 15.07
19:45 15.07
20:05 15.07
Ветер
(напр.,м/с)
Видим. Явления Облачность Т
(С)
Тd
(С)
f
(%)
Тe
(С)
Тes
(С)
Комфортность P
(гПа)
Po
(гПа)
Тmin
(С)
Tmax
(С)
R
(мм)
R24
(мм)
S
(см)
штиль 0 16 км 5/0 2700 m
[Ac]
+26.5 +22.2 77 +34 +34 очень
душно
1011.3
штиль 0 16 км 5/0 2700 m
[Ac]
+27.1 +22.1 74 +35 +35 очень
душно
1011.3
штиль 0 16 км 5/0 2700 m
[Ac]
+27.1 +22.0 74 +35 +35 очень
душно
1011.6
З 2 16 км 8/0 2700 m
[Ac]
+27.4 +21.3 69 +35 +35 очень
душно
1012.0
З 3 16 км 5/0 2700 m
[Ac]
+27.5 +20.4 65 +34 +34 очень
душно
1012.0
З 2 16 км 5/0 2700 m
[Ac]
+27.3 +20.2 65 +34 +34 очень
душно
1012.3
штиль 0 16 км ясно +27.5 +20.1 64 +34 +35 очень
душно
1012.3
СЗ 2 16 км ясно +28.2 +19.7 60 +34 +35 очень
душно
1012.3
штиль 0 16 км ясно +29.0 +19.6 57 +35 +36 очень
душно
1012.6 +24.9 +29.1
С 2 16 км 5/0 3600 m
[Ac]
+29.2 +19.3 55 +35 +37 очень
душно
1012.3
СЗ 3 16 км ясно +30.1 +19.1 52 +36 +39 очень
душно
1012.6
СЗ 2 16 км ясно +30.9 +19.4 50 +37 +40 очень
душно
1012.6
СЗ 3 16 км ясно +30.8 +19.3 50 +36 +42 очень
душно
1012.6
СЗ 5 16 км ясно +31.7 +19.6 49 +38 +41 очень
душно
1012.6
СЗ 3
{7}
16 км ясно +32.3 +19.7 47 +38 +44 очень
душно
1012.6
З 6 16 км ясно +32.0 +19.7 48 +38 +42 очень
душно
1012.6
СЗ 5 16 км ясно +32.9 +19.5 45 +38 +45 очень
душно
1012.3
СЗ 4 16 км ясно +32.9 +19.5 45 +38 +46 очень
душно
1012.3
СЗ 5
{8}
16 км ясно +33.8 +19.8 44 +40 +48 очень
душно
1012.3
З 5 16 км ясно +34.5 +19.5 41 +40 +48 очень
душно
1012.0
СЗ 6 16 км ясно +34.3 +19.2 41 +39 +46 очень
душно
1012.0
З 5 16 км ясно +34.7 +19.8 42 +41 +51 опасность
перегрева
1012.0
СЗ 5 16 км ясно +35.1 +19.6 40 +40 +50 очень
душно
1011.6
С 5 16 км ясно +35.0 +19.6 41 +41 +51 опасность
перегрева
1011.3
СЗ 4 16 км ясно +35.3 +19.8 40 +41 +54 опасность
перегрева
1011.3
З 4 16 км ясно +36.3 +18.5 35 +40 +54 опасность
солнечного
удара
1010.6 +28.7 +36.6
С 2 16 км 5/0 2100 m
[Ac]
+36.1 +19.0 37 +41 +54 опасность
перегрева
1010.3
З 2 16 км 5/0 2100 m
[Ac]
+36.8 +19.1 36 +42 +54 опасность
перегрева
1010.3
ЮЗ 3 16 км 5/0 2100 m
[Ac]
+36.3 +19.3 37 +41 +52 опасность
перегрева
1010.3
ЮЗ 3 16 км 5/0 2100 m
[Ac]
+36.9 +19.1 35 +41 +51 опасность
перегрева
1009.9
СЗ 3 16 км 5/0 2100 m
[Ac]
+37.4 +18.7 34 +42 +51 опасность
перегрева
1009.6
ЮЗ 3 11 км мгла ясно +37.3 +18.4 33 +41 +55 опасность
перегрева
1009.3
Ю 3 16 км ясно +37.6 +18.9 34 +42 +53 опасность
перегрева
1008.6
ЮЗ 4 16 км ясно +38.3 +19.4 33 +43 +52 опасность
перегрева
1008.2
Ю 6
{8}
16 км 5/0 2100 m
[Ac]
+37.5 +19.3 35 +42 +46 опасность
перегрева
1008.2
Ю 4 16 км 5/0 2100 m
[Ac]
+37.5 +19.7 36 +43 +47 опасность
перегрева
1007.9
ЮЗ 3 16 км 5/0 2400 m
[Ac]
+36.3 +19.6 38 +42 +46 опасность
перегрева
1008.2
ЮЗ 4 11 км 8/0 2100 m
[Ac]
+35.7 +20.2 40 +42 +44 опасность
перегрева
1008.9
З 6
{12}
8 км дождь 10/0 2100 m
[Ac As]
+27.2 +22.0 73 +35 +36 очень
душно
1009.6
Ю 2 16 км слабый дождь 8/0 3300 m
[Ac As]
+26.9 +21.2 71 +34 +36 очень
душно
1008.6
ЮВ 2 16 км ясно +27.5 +22.9 76 +37 +41 очень
душно
1008.6
Ю 2 16 км ясно +28.6 +22.5 70 +38 +39 очень
душно
1008.2
штиль 0 16 км ясно +28.7 +24.0 76 +40 +42 очень
душно
1007.9
штиль 0 16 км ясно +30.0 +23.1 67 +40 +42 очень
душно
1007.9 +26.0 +38.7 0.5
штиль 0 16 км ясно +27.7 +24.3 82 +39 +39 очень
душно
1008.2
штиль 0 16 км ясно +27.4 +24.2 83 +38 +38 очень
душно
1008.6
штиль 0 16 км ясно +26.9 +24.0 84 +37 +37 очень
душно
1008.6
штиль 0 16 км ясно +26.7 +24.0 85 +37 +37 очень
душно
1008.9
Местоположение метеостанции College Park Airport: широта 38.9806 долгота -76.9223 высота над уровнем моря 15 м.
В архиве по умолчанию представлена погода в Колледж Парк за последние 1-2 суток. Обновление информации о фактической погоде в базе происходит ежечасно! Архивные данные за месяц целиком и за предыдущие месяцы Вы можете получить, выбрав интересующий диапазон дат из раскрывающегося списка и нажав кнопку "Ввод!".
Внимание! Архив погоды МЕТАР в базе сайта по станциям, не включенным в климатический монитор, хранится не более 60 дней. Нет смысла пытаться выбрать более раннюю дату.
*Определитесь, кто Вы:
Внимание! Время в таблицах - местное (без учета летнего времени). Для получения всемирного времени необходимо вычесть поправку, которая равна -5 ч.
Смотрите также архив погоды в соседних городах и на ближайших метеорологических станциях:
Партнеры нашего сайта:      
Пояснения к столбцам:
  • Ветер - указаны скорость ветра в м/с - средняя за 10 мин, порывы в срок и между сроками (в фигурных скобках) и направление, откуда дует ветер: С - северный,
  • СВ - северо-восточный, В - восточный, ЮВ - юго-восточный, Ю - южный, ЮЗ - юго-западный, З - западный, СЗ - северо-западный.
  • Видимость - горизонтальная дальность видимости в метрах или километрах. При видимости от 1 до 10 км при отсутствии осадков обычно наблюдается дымка, при ухудшении видимости до 1 км и менее - туман. В сухую погоду видимость может ухудшаться дымом, пылью или мглою.
  • Явления - указаны атмосферные явления, наблюдавшиеся в срок или в последний час перед сроком; фигурными скобками обозначены явления, наблюдавшиеся между сроками (за 1-3 часа до срока); квадратными скобками обозначены град или гололедные отложения с указанием их диаметра в мм.
  • Облачность - указаны через наклонную черту общая и нижняя облачность в баллах и высота нижней границы облаков в метрах; квадратными скобками обозначены формы облаков: Ci - перистые, Cs - перисто-слоистые, Cc - перисто-кучевые, Ac - высококучевые, As - высокослоистые, Sc - слоисто-кучевые, Ns - слоисто-дождевые, Cu - кучевые, Cb - кучево-дождевые. Подробнее классификацию облаков см. в Атласе облаков (PDF).
  • T - Температура воздуха - температура, измеренная на высоте 2 м над землей.
  • Td - Температура точки росы - температура, при понижении до которой содержащийся в воздухе водяной пар достигнет насыщения.
  • f - Относительная влажность воздуха - влажноcть воздуха, измеренная на высоте 2 м над землей.
  • Te - Эффективная температура - температура, которую ощущает одетый по сезону человек в тени. Характеристика душности погоды. При расчете учитывается влияние влажности воздуха и скорости ветра на теплоощущения человека.
  • Tes - Эффективная температура на солнце - температура, которую ощущает человек, с поправкой на солнечный нагрев. Характеристика знойности погоды. Зависит от высоты солнца над горизонтом, облачности и скорости ветра. Ночью, в пасмурную погоду, а также при ветре 12 м/с и более поправка равна нулю.
  • P - Атмосферное давление - приведенное к уровню моря атмосферное давление.
  • Po - Атмосферное давление - измеренное на уровне метеостанции атмосферное давление.
  • Tmin - Минимальная температура - минимум температуры воздуха на высоте 2 м над землей.
  • Tmax - Максимальная температура - максимум температуры воздуха на высоте 2 м над землей.
  • R - Количество осадков - Количество выпавших осадков за период времени, мм. При наведении курсора мыши на число - период времени, за который выпало указанное количество осадков.
  • R24 - Количество осадков - Количество выпавших осадков за 24 часа, мм.
  • S - Снежный покров - Высота снежного покрова, см. При наведении курсора мыши на число - состояние снежного покрова и степень покрытия местности в баллах.